EW3861 Weather Reports


Display with metric or nautical units.
time (UTC)temp
F
wind
direction
speed
MPH
gust
MPH
rain 1hr
in
rain 24hr
in
rain mn
in
humidity
%
barometer
mb
20260906093105 60 72 0.0 0.0 0.00 0.00 0.00 95 1012.5
20260906091543 60 72 0.0 0.0 0.00 0.00 0.00 96 1012.1
20260906090040 60 72 0.0 0.0 0.00 0.00 0.00 96 1011.9
20260906084539 60 72 0.0 0.0 0.00 0.00 0.00 95 1011.9
20260906083046 60 72 0.0 0.0 0.00 0.00 0.00 95 1011.7
20260906081540 60 72 0.0 0.0 0.00 0.00 0.00 95 1011.7
20260906080041 59 72 0.0 0.0 0.00 0.00 0.00 95 1011.6
20260906074537 59 72 0.0 0.0 0.00 0.00 0.00 95 1011.4
20260906073036 59 72 0.0 0.0 0.00 0.00 0.00 94 1011.4
20260906071537 59 72 0.0 0.0 0.00 0.00 0.00 94 1011.5
20260906070035 59 72 0.0 0.0 0.00 0.00 0.00 94 1011.5
20260906064534 59 72 0.0 0.0 0.00 0.00 0.00 94 1011.5
20260906063035 59 72 0.0 0.0 0.00 0.00 0.00 93 1011.5
20260906061532 59 72 0.0 0.0 0.00 0.00 0.00 93 1011.5
20260906060031 59 72 0.0 0.0 0.00 0.00 0.00 93 1011.5
20260906054532 60 72 0.0 0.0 0.00 0.00 0.00 92 1011.5
20260906053029 60 72 0.0 0.0 0.00 0.00 0.00 92 1011.8
20260906051536 60 72 0.0 0.0 0.00 0.00 0.00 92 1011.8
20260906050028 60 72 0.0 0.0 0.00 0.00 0.00 91 1011.9
20260906044525 60 72 0.0 0.0 0.00 0.00 0.00 91 1011.8
20260906043025 60 72 0.0 0.0 0.00 0.00 0.00 91 1011.8
20260906041524 60 72 0.0 0.0 0.00 0.00 0.00 91 1011.7
20260906040029 61 72 0.0 0.0 0.00 0.00 0.00 90 1011.7
20260906034522 61 72 0.0 0.0 0.00 0.00 0.00 90 1011.6
20260906033035 61 72 0.0 0.0 0.00 0.00 0.00 90 1011.4
20260906031525 61 72 0.0 0.0 0.00 0.00 0.00 90 1011.3
20260906030021 61 72 0.0 0.0 0.00 0.00 0.00 89 1011.3
20260906024538 61 72 0.0 0.0 0.00 0.00 0.00 89 1011.4
20260906023024 62 72 0.0 0.0 0.00 0.00 0.00 88 1011.5
20260906021520 62 72 0.0 0.0 0.00 0.00 0.00 88 1011.4
20260906020019 62 72 0.0 0.0 0.00 0.00 0.00 88 1011.4
20260906014530 62 72 0.0 0.0 0.00 0.00 0.00 87 1011.5
20260906013036 62 72 0.0 0.0 0.00 0.00 0.00 87 1011.7
20260906011517 63 72 0.0 0.0 0.00 0.00 0.00 86 1011.5
20260906010017 63 72 0.0 0.0 0.00 0.00 0.00 86 1011.4
20260906004515 63 72 0.0 0.0 0.00 0.00 0.00 86 1011.4
20260906003013 63 72 0.0 0.0 0.00 0.00 0.00 86 1011.1
20260906001513 63 72 0.0 0.0 0.00 0.00 0.00 85 1011.0
20260906000011 64 72 0.0 0.0 0.00 0.00 0.00 84 1010.8
20260905234510 64 72 0.0 0.0 0.00 0.00 0.00 84 1010.8
20260905233010 64 72 0.0 0.0 0.00 0.00 0.00 83 1010.7
20260905231508 65 72 0.0 0.0 0.00 0.00 0.00 82 1010.6
20260905230008 65 72 0.0 0.0 0.00 0.00 0.00 82 1010.5
20260905224507 66 72 0.0 0.0 0.00 0.00 0.00 82 1010.5
20260905223006 66 72 0.0 0.0 0.00 0.00 0.00 80 1010.6
20260905221505 67 72 0.0 0.0 0.00 0.00 0.00 80 1010.5
20260905220003 67 72 0.0 0.0 0.00 0.00 0.00 79 1010.3
20260905214603 68 71 0.0 0.0 0.00 0.00 0.00 77 1010.0
20260905213105 68 36 0.0 0.0 0.00 0.00 0.00 77 1009.9
20260905211602 69 360 0.0 0.0 0.00 0.00 0.00 77 1009.7
20260905210059 69 355 0.0 0.0 0.00 0.00 0.00 75 1009.7
20260905204557 70 360 0.0 0.0 0.00 0.00 0.00 75 1009.6
20260905203056 71 355 0.0 0.0 0.00 0.00 0.00 74 1009.3
20260905201612 70 360 0.0 0.0 0.00 0.00 0.00 75 1009.2
20260905200056 70 5 0.0 0.0 0.00 0.00 0.00 75 1009.1
20260905194552 71 82 0.0 0.0 0.00 0.00 0.00 73 1009.1
20260905193104 71 117 0.0 0.0 0.00 0.00 0.00 74 1009.1
20260905191550 70 319 0.0 0.0 0.00 0.00 0.00 76 1009.1
20260905190050 70 283 0.0 0.0 0.00 0.00 0.00 76 1009.1
20260905184553 71 42 0.0 0.0 0.00 0.00 0.00 76 1009.0
20260905183047 70 355 0.0 0.0 0.00 0.00 0.00 77 1009.2
20260905181603 70 355 0.0 0.0 0.00 0.00 0.00 79 1009.2
20260905180044 69 355 0.0 0.0 0.00 0.00 0.00 78 1009.2
20260905174543 69 152 0.0 0.0 0.00 0.00 0.00 79 1008.9
20260905173042 69 34 0.0 0.0 0.00 0.00 0.00 81 1008.9
20260905171542 69 61 0.0 0.0 0.00 0.00 0.00 79 1008.9
20260905170041 69 34 0.0 0.0 0.00 0.00 0.00 79 1008.9
20260905164539 70 321 0.0 0.0 0.00 0.00 0.00 78 1008.8
20260905163039 69 288 0.0 0.0 0.00 0.00 0.00 78 1008.6
20260905161551 69 54 0.0 0.0 0.00 0.00 0.00 80 1008.6
20260905160041 69 18 0.0 0.0 0.00 0.00 0.00 79 1008.6
20260905154540 69 325 0.0 0.0 0.00 0.00 0.00 79 1008.5
20260905153035 70 171 0.0 0.0 0.00 0.00 0.00 79 1008.4
20260905151534 69 86 0.0 0.0 0.00 0.00 0.00 79 1008.3
20260905150034 69 63 0.0 0.0 0.00 0.00 0.00 79 1008.3
20260905144529 68 59 0.0 0.0 0.00 0.00 0.00 82 1008.3
20260905143029 67 68 0.0 0.0 0.00 0.00 0.00 84 1008.2
20260905141530 67 103 0.0 0.0 0.00 0.00 0.00 86 1008.3
20260905140021 66 115 0.0 0.0 0.00 0.00 0.00 88 1008.2
20260905134520 66 105 0.0 0.0 0.00 0.00 0.00 89 1008.5
20260905133015 64 169 0.0 0.0 0.00 0.00 0.00 93 1008.5
20260905131514 63 101 0.0 0.0 0.00 0.00 0.00 96 1008.3
20260905130009 62 96 0.0 0.0 0.00 0.00 0.00 97 1008.1
20260905124507 62 98 0.0 0.0 0.00 0.00 0.00 97 1008.1
20260905123014 61 101 0.0 0.0 0.00 0.00 0.00 97 1007.9
20260905121504 60 73 0.0 0.0 0.00 0.00 0.00 97 1007.9
20260905120005 59 73 0.0 0.0 0.00 0.00 0.00 97 1007.8
20260905114503 58 73 0.0 0.0 0.00 0.00 0.00 96 1007.6
20260905113003 58 73 0.0 0.0 0.00 0.00 0.00 96 1007.6
20260905111501 57 73 0.0 0.0 0.00 0.00 0.00 96 1007.5
20260905110001 57 73 0.0 0.0 0.00 0.00 0.00 95 1007.3
20260905104614 57 73 0.0 0.0 0.00 0.00 0.00 95 1007.2
20260905103100 57 73 0.0 0.0 0.00 0.00 0.00 95 1007.2
20260905101602 57 73 0.0 0.0 0.00 0.00 0.00 95 1007.1
20260905100101 57 73 0.0 0.0 0.00 0.00 0.00 95 1007.2
20260905094557 57 73 0.0 0.0 0.00 0.00 0.00 95 1007.1